CW9879 Weather Reports


time (UTC)temp
F
wind
direction
speed
knots
gust
knots
rain 1hr
in
rain 24hr
in
rain mn
in
humidity
%
barometer
mb
20260507150020 56 176 0.0 1.7 0.00 0.02 0.02 68 1012.8
20260507144532 56 235 0.0 1.7 0.00 0.04 0.02 69 1012.8
20260507143028 56 307 0.0 1.7 0.00 0.04 0.02 69 1013.3
20260507141525 56 333 0.0 2.6 0.00 0.06 0.02 75 1013.5
20260507140020 56 136 0.0 2.6 0.00 0.08 0.02 78 1013.3
20260507134503 56 267 0.0 1.7 0.00 0.09 0.02 76 1013.4
20260507133007 56 257 0.0 2.6 0.00 0.09 0.02 75 1013.2
20260507131517 56 180 0.0 2.6 0.00 0.09 0.02 77 1013.0
20260507130013 56 187 0.0 1.7 0.00 0.10 0.02 79 1013.1
20260507124521 56 323 0.0 3.5 0.00 0.10 0.02 79 1013.1
20260507123005 56 238 0.0 3.5 0.00 0.10 0.02 80 1012.9
20260507121508 55 276 0.0 2.6 0.00 0.10 0.02 84 1012.9
20260507120011 55 138 0.0 1.7 0.00 0.10 0.02 84 1012.6
20260507114516 55 247 0.0 0.0 0.00 0.10 0.02 88 1012.6
20260507113037 55 197 0.0 0.0 0.00 0.10 0.02 88 1012.6
20260507111504 55 200 0.0 2.6 0.00 0.10 0.02 89 1012.2
20260507110011 55 181 0.0 1.7 0.00 0.10 0.02 89 1012.4
20260507104514 55 193 0.0 1.7 0.00 0.10 0.02 90 1012.3
20260507103022 55 230 0.0 0.9 0.00 0.10 0.02 90 1012.2
20260507101526 55 230 0.0 1.7 0.00 0.10 0.02 91 1011.8
20260507100007 55 349 0.0 0.9 0.00 0.10 0.02 91 1011.9
20260507094516 55 232 0.0 0.9 0.00 0.10 0.02 91 1012.3
20260507093016 55 232 0.0 0.0 0.00 0.10 0.02 91 1012.0
20260507091520 55 232 0.0 0.0 0.00 0.10 0.02 91 1012.1
20260507090024 55 232 0.0 1.7 0.00 0.10 0.02 90 1011.9
20260507084508 55 221 0.0 0.0 0.00 0.10 0.02 90 1011.5
20260507083013 55 221 0.0 0.0 0.00 0.10 0.02 90 1011.8
20260507081533 55 221 0.0 0.0 0.00 0.10 0.02 90 1011.8
20260507080024 56 329 0.0 0.9 0.00 0.10 0.02 90 1012.0
20260507074526 56 200 0.0 1.7 0.00 0.10 0.02 89 1011.3
20260507073010 56 200 0.0 0.0 0.00 0.10 0.02 90 1011.1
20260507071516 56 200 0.0 0.9 0.00 0.10 0.02 89 1010.9
20260507070022 57 178 0.0 1.7 0.00 0.10 0.02 89 1010.9
20260507064526 57 309 0.0 2.6 0.00 0.10 0.02 90 1011.3
20260507063028 58 279 0.0 1.7 0.00 0.10 0.02 90 1011.3
20260507061516 59 300 0.0 1.7 0.01 0.10 0.02 91 1011.4
20260507060020 59 5 0.0 1.7 0.01 0.10 0.02 91 1010.4
20260507054522 60 235 0.0 1.7 0.01 0.10 0.02 90 1009.6
20260507053025 61 218 0.0 0.9 0.01 0.10 0.02 90 1009.7
20260507051528 61 246 0.0 1.7 0.01 0.09 0.01 89 1010.7
20260507050007 62 293 0.9 2.6 0.01 0.09 0.01 89 1011.3
20260507044503 63 343 0.0 1.7 0.01 0.09 0.01 91 1010.8
20260507043008 64 298 0.0 0.0 0.01 0.09 0.01 91 1010.5
20260507041504 64 298 0.0 0.0 0.00 0.08 0.00 90 1010.3
20260507040004 64 298 0.0 0.0 0.00 0.08 0.00 90 1010.3
20260507034503 64 298 0.0 0.0 0.00 0.08 0.08 89 1010.4
20260507033004 64 298 0.0 0.0 0.00 0.08 0.08 89 1010.1
20260507031504 64 298 0.0 0.0 0.00 0.08 0.08 88 1010.2
20260507030007 65 298 0.0 0.0 0.00 0.08 0.08 88 1010.5
20260507024508 65 298 0.0 0.0 0.00 0.08 0.08 88 1010.0
20260507023007 65 298 0.0 0.0 0.00 0.08 0.08 87 1009.8
20260507021504 66 298 0.0 0.0 0.00 0.08 0.08 86 1009.3
20260507020008 66 293 0.0 0.0 0.00 0.08 0.08 86 1009.7
20260507014507 66 283 0.0 0.9 0.00 0.08 0.08 85 1009.8
20260507013006 67 283 0.0 1.7 0.00 0.08 0.08 85 1009.8
20260507011512 67 213 0.0 0.9 0.00 0.08 0.08 84 1009.9
20260507010008 67 303 0.0 2.6 0.00 0.08 0.08 84 1009.5
20260507004509 67 179 0.0 0.0 0.00 0.08 0.08 83 1009.4
20260507003007 68 90 0.0 1.7 0.00 0.08 0.08 82 1009.2
20260507001521 68 224 0.0 2.6 0.00 0.08 0.08 82 1009.3
20260507000013 68 244 0.0 2.6 0.00 0.08 0.08 81 1009.3
20260506234508 69 201 0.0 3.5 0.00 0.08 0.08 81 1009.3
20260506233008 69 133 0.0 3.5 0.00 0.08 0.08 81 1008.8
20260506231509 69 182 0.0 5.2 0.00 0.08 0.08 80 1008.9
20260506230011 70 186 0.9 3.5 0.00 0.08 0.08 79 1009.1
20260506224509 70 215 0.0 2.6 0.00 0.08 0.08 79 1009.0
20260506223010 70 181 0.0 2.6 0.00 0.08 0.08 78 1009.0
20260506221512 71 221 0.0 3.5 0.00 0.08 0.08 78 1009.2
20260506220012 71 126 0.0 4.3 0.00 0.08 0.08 77 1009.0
20260506214513 71 146 0.9 4.3 0.00 0.08 0.08 77 1008.9
20260506213014 71 11 0.9 5.2 0.00 0.08 0.08 76 1009.1
20260506211512 70 236 0.0 3.5 0.00 0.08 0.08 78 1009.0
20260506210022 70 135 0.9 6.1 0.00 0.08 0.08 78 1009.0
20260506204515 70 222 0.0 7.0 0.00 0.08 0.08 78 1009.0
20260506203013 69 360 0.0 3.5 0.00 0.08 0.08 79 1009.0
20260506201520 69 84 0.9 4.3 0.00 0.08 0.08 79 1009.1
20260506200003 67 245 0.0 3.5 0.00 0.08 0.08 81 1009.1
20260506194506 66 142 0.0 5.2 0.00 0.08 0.08 83 1009.0
20260506193004 66 136 0.9 4.3 0.00 0.08 0.08 83 1009.1
20260506191511 66 241 0.9 5.2 0.00 0.08 0.08 83 1009.6
20260506190002 66 160 0.0 4.3 0.00 0.08 0.08 84 1009.9
20260506184504 66 296 0.0 3.5 0.00 0.08 0.08 84 1010.1
20260506183003 66 173 0.9 4.3 0.00 0.08 0.08 84 1010.1
20260506181507 65 228 0.0 3.5 0.00 0.08 0.08 85 1010.4
20260506180012 65 127 0.0 4.3 0.00 0.08 0.08 85 1010.3
20260506174502 65 300 0.0 2.6 0.00 0.08 0.08 85 1010.1
20260506173004 64 290 0.9 3.5 0.00 0.08 0.08 86 1010.4
20260506171503 64 196 0.0 2.6 0.00 0.08 0.08 87 1010.7
20260506170006 63 157 0.9 3.5 0.00 0.08 0.08 88 1010.5
20260506164535 63 161 0.9 3.5 0.00 0.08 0.08 89 1010.9
20260506163019 62 99 0.9 7.0 0.00 0.08 0.08 89 1011.0
20260506161504 62 294 0.0 4.3 0.00 0.08 0.08 90 1011.6
20260506160008 62 175 0.9 4.3 0.00 0.08 0.08 90 1011.2
20260506154508 61 171 0.0 3.5 0.02 0.08 0.08 91 1011.2
20260506153016 61 296 0.0 3.5 0.02 0.08 0.08 91 1011.2